Location: Palmerston North
(40.3500°S, 175.6170°E)
Time: 22:59:32
(UTC+13:00)

ISS - Pass Details

Date: 29 January 2019
Orbit: 403 x 411 km, 51.6° (Epoch: 16 February)

Event Time Altitude Azimuth Distance (km) Brightness Sun altitude
Exits shadow 04:42:47 14° 21° (NNE) 1,243 -1.6 -16.4°
Maximum altitude 04:44:05 17° 49° (NE) 1,115 -1.5 -16.2°
Drops below altitude 10° 04:46:23 10° 93° (E) 1,491 -0.2 -15.9°
Sets 04:48:57 0° 113° (ESE) 2,359 1.5 -15.5°
